Flag for Canada Weather past 2 weeks in Hamilton, Ontario, Canada

Now
77 °F

Partly sunny.


Feels Like: 79 °F
Forecast: 64 / 78 °F
Wind: 6 mph from Southwest

Location: Hamilton Airport

Current Time: Aug 30, 2015 at 2:17:26 PM

Latest Report: Aug 30, 2015 at 1:00 PM


Visibility: 15 mi

Pressure: 30.09 "Hg

Humidity: 65%

Dew point: 64 °F

Location of HamiltonLocation

Historic Weather in Hamilton — Graph

°F

Hamilton temperature yesterday

Maximum temperature yesterday: 77 °F (at 3:00 PM)
Minimum temperature yesterday: 55 °F (at 5:00 AM)
Average temperature yesterday: 66 °F

Past Weeks' High & Low Weather Summary

 TemperatureHumidityPressure
High86 °F (Aug 17, 1:00 PM)100% (Aug 16, 1:00 AM)30.23 "Hg (Aug 16, 1:00 AM)
Low48 °F (Aug 28, 7:00 AM)47% (Aug 22, 5:00 PM)29.71 "Hg (Aug 20, 6:00 AM)
Average67 °F79%30.02 "Hg
* Reported Aug 15 1:00 PM — Aug 30 1:00 PM, Hamilton, Weather by CustomWeather, © 2015

Note: Actual official high and low records may vary slightly from our data, if they occured in-between our weather recording intervals... More about our weather records

Advertising

Hamilton weather history for previous 24 hours

 ConditionsComfort  
Time TempWeatherWind HumidityBarometerVisibility
1:00 PM
Sun, Aug 30
77 °FPartly sunny.6 mph65%30.09 "Hg15 mi
12:00 PM75 °FBroken clouds.2 mph69%30.10 "Hg15 mi
11:00 AM73 °FBroken clouds.2 mph69%30.11 "Hg12 mi
10:00 AM68 °FPartly sunny.3 mph88%30.09 "Hg8 mi
9:00 AM66 °FFog.3 mph94%30.09 "Hg6 mi
8:00 AM64 °FFog.3 mph94%30.09 "Hg6 mi
7:00 AM64 °FFog.No wind94%30.08 "Hg6 mi
6:00 AM64 °FOvercast.5 mph94%30.06 "Hg15 mi
5:00 AM64 °FOvercast.5 mph94%30.05 "Hg15 mi
4:00 AM66 °FOvercast.8 mph88%30.06 "Hg15 mi
3:00 AM64 °FLight rain. Overcast.5 mph94%30.06 "Hg15 mi
2:00 AM64 °FOvercast.3 mph94%30.07 "Hg15 mi
1:00 AM64 °FOvercast.2 mph94%30.08 "Hg15 mi
12:00 AM66 °FOvercast.3 mph88%30.09 "Hg15 mi
11:00 PM
Sat, Aug 29
66 °FMostly cloudy.2 mph88%30.09 "Hg15 mi
10:00 PM68 °FMostly cloudy.2 mph78%30.09 "Hg15 mi
9:00 PM68 °FOvercast.3 mph78%30.08 "Hg15 mi
8:00 PM70 °FMostly cloudy.2 mph69%30.08 "Hg15 mi
7:00 PM72 °FMore clouds than sun.2 mph69%30.08 "Hg15 mi
6:00 PM73 °FMostly cloudy.8 mph61%30.10 "Hg15 mi
5:00 PM75 °FMostly cloudy.10 mph57%30.10 "Hg15 mi
4:00 PM77 °FBroken clouds.2 mph51%30.09 "Hg15 mi
3:00 PM77 °FBroken clouds.3 mph54%30.12 "Hg15 mi
2:00 PM75 °FBroken clouds.6 mph57%30.14 "Hg15 mi
Weather by CustomWeather, © 2015

See weather overviewHow to use our weather pages